TimeCST,TemperatureF,Dew PointF,Humidity,Sea Level PressureIn,VisibilityMPH,Wind Direction,Wind SpeedMPH,Gust SpeedMPH,PrecipitationIn,Events,Conditions,WindDirDegrees,DateUTC
12:53 AM,64.9,62.1,90,29.96,10.0,South,10.4,-,N/A,,Mostly Cloudy,190,2013-01-12 06:53:00
1:04 AM,64.4,62.6,94,29.97,10.0,South,10.4,-,N/A,,Mostly Cloudy,190,2013-01-12 07:04:00
1:14 AM,64.4,62.6,94,29.97,10.0,South,10.4,-,N/A,,Mostly Cloudy,190,2013-01-12 07:14:00
1:53 AM,66.0,62.1,87,29.97,10.0,South,10.4,18.4,N/A,,Overcast,190,2013-01-12 07:53:00
2:53 AM,66.0,63.0,90,29.96,10.0,SSW,8.1,-,N/A,,Overcast,200,2013-01-12 08:53:00
3:53 AM,66.9,64.0,90,29.95,10.0,South,6.9,-,N/A,,Overcast,190,2013-01-12 09:53:00
4:38 AM,66.2,64.4,94,29.95,10.0,South,5.8,-,0.00,,Overcast,170,2013-01-12 10:38:00
4:53 AM,66.0,64.0,93,29.95,10.0,South,5.8,-,0.00,,Overcast,170,2013-01-12 10:53:00
5:10 AM,66.2,64.4,94,29.95,10.0,South,5.8,-,N/A,,Overcast,170,2013-01-12 11:10:00
5:23 AM,66.2,64.4,94,29.96,10.0,South,4.6,-,N/A,,Overcast,180,2013-01-12 11:23:00
5:53 AM,66.0,64.0,93,29.96,10.0,South,4.6,-,N/A,,Overcast,170,2013-01-12 11:53:00
6:53 AM,66.0,64.0,93,29.97,10.0,SSE,4.6,-,0.01,,Overcast,160,2013-01-12 12:53:00
7:53 AM,66.0,64.0,93,29.96,10.0,SSE,4.6,-,N/A,,Overcast,160,2013-01-12 13:53:00
8:53 AM,66.9,64.9,93,29.97,10.0,South,8.1,-,N/A,,Overcast,170,2013-01-12 14:53:00
9:49 AM,69.8,64.4,83,29.98,10.0,South,6.9,-,N/A,,Overcast,180,2013-01-12 15:49:00
9:53 AM,69.1,64.9,87,29.97,10.0,South,6.9,-,N/A,,Overcast,170,2013-01-12 15:53:00
10:53 AM,69.1,64.9,87,29.95,10.0,South,9.2,17.3,N/A,,Overcast,170,2013-01-12 16:53:00
11:08 AM,69.8,64.4,83,29.95,10.0,South,9.2,-,N/A,,Overcast,170,2013-01-12 17:08:00
11:37 AM,69.8,64.4,83,29.92,10.0,South,13.8,-,N/A,,Overcast,180,2013-01-12 17:37:00
11:53 AM,69.1,64.9,87,29.90,10.0,South,11.5,21.9,0.00,,Overcast,170,2013-01-12 17:53:00
12:53 PM,69.1,64.0,84,29.88,10.0,South,13.8,20.7,N/A,,Overcast,190,2013-01-12 18:53:00
1:10 PM,69.8,64.4,83,29.89,6.0,South,10.4,-,0.00,Rain,Rain,190,2013-01-12 19:10:00
1:53 PM,70.0,64.9,84,29.87,10.0,SSW,11.5,17.3,0.01,,Overcast,200,2013-01-12 19:53:00
2:53 PM,72.0,64.9,78,29.86,10.0,South,13.8,19.6,N/A,,Mostly Cloudy,190,2013-01-12 20:53:00
3:53 PM,72.0,64.0,76,29.84,10.0,South,8.1,18.4,N/A,,Mostly Cloudy,180,2013-01-12 21:53:00
4:53 PM,72.0,63.0,73,29.83,10.0,South,12.7,18.4,N/A,,Partly Cloudy,180,2013-01-12 22:53:00
5:53 PM,70.0,64.0,81,29.81,10.0,SSE,10.4,17.3,N/A,,Clear,160,2013-01-12 23:53:00
7:39 PM,69.8,64.4,83,29.81,10.0,South,10.4,17.3,N/A,,Mostly Cloudy,180,2013-01-13 01:39:00
7:53 PM,71.1,64.0,78,29.81,10.0,South,10.4,18.4,N/A,,Overcast,170,2013-01-13 01:53:00
8:53 PM,71.1,64.0,78,29.78,10.0,South,12.7,25.3,N/A,,Overcast,170,2013-01-13 02:53:00
9:01 PM,71.6,64.4,78,29.79,10.0,South,15.0,24.2,N/A,,Overcast,170,2013-01-13 03:01:00
9:16 PM,71.6,64.4,78,29.79,10.0,South,11.5,24.2,N/A,,Overcast,170,2013-01-13 03:16:00
9:53 PM,71.1,64.0,78,29.78,10.0,South,11.5,21.9,N/A,,Overcast,180,2013-01-13 03:53:00
10:09 PM,71.6,64.4,78,29.79,10.0,South,10.4,19.6,N/A,,Overcast,180,2013-01-13 04:09:00
10:53 PM,71.1,64.0,78,29.76,10.0,South,13.8,26.5,N/A,,Mostly Cloudy,180,2013-01-13 04:53:00
11:25 PM,71.6,62.6,73,29.78,10.0,South,16.1,26.5,N/A,,Overcast,190,2013-01-13 05:25:00
11:39 PM,71.6,62.6,73,29.78,10.0,South,11.5,24.2,N/A,,Overcast,190,2013-01-13 05:39:00
11:53 PM,71.1,63.0,75,29.77,10.0,South,12.7,20.7,N/A,,Mostly Cloudy,180,2013-01-13 05:53:00